Location: Cedar Brake
(32.2526°N, 97.8459°W)
Time: 08:54:20
(UTC+00:00)

SL-08 R/B - Pass Details

Date: 22 April 2026
Orbit: 667 x 728 km, 98.5° (Epoch: 15 May)

Event Time Altitude Azimuth Distance (km) Brightness Sun altitude
Rises 02:05:50 0° 27° (NNE) 3,152 6.7 -12.9°
Reaches altitude 10° 02:08:26 10° 39° (NE) 2,225 5.8 -13.4°
Maximum altitude 02:12:35 27° 97° (E) 1,361 4.3 -14.2°
Enters shadow 02:14:35 21° 134° (SE) 1,599 4.6 -14.6°
